Wind_Speed
26 23 23 26 23 25 27 25 23 23 20 18 18 17 17 18 17 17 21 18 16 18 18 18 17 19 20 22 21 22 24 26 28 31 33 34 36 36 35 36 37 34 30 36
25 24 26 25 25 26 26 26 26 23 24 20 17 18 19 19 17 16 18 19 17 17 21 20 22 23 24 23 25 25 25 28 31 34 36 35 32 32 33 34 32 32 33 37
23 22 22 16 27 24 25 25 26 26 24 18 21 25 23 23 22 22 18 16 19 21 23 23 22 20 20 20 21 24 28 31 33 31 29 30 31 32 32 32 30 31 34 34
18 19 8 20 19 19 23 26 24 24 24 25 25 25 24 25 25 24 23 20 22 22 21 19 18 18 19 21 25 28 29 28 27 28 30 31 33 33 34 35 32 34 36 34
13 17 19 17 22 20 23 24 22 26 24 26 26 20 24 27 28 28 27 24 22 20 19 18 18 20 22 25 25 25 24 25 26 27 28 29 30 31 31 32 31 33 34 30
18 12 9 19 20 20 19 27 20 22 22 26 24 25 24 23 25 25 24 21 20 18 17 18 19 21 22 22 22 22 23 24 24 25 25 25 25 25 25 24 24 25 25 26
24 12 15 17 16 16 16 29 15 21 17 12 19 22 22 15 21 24 23 20 18 17 18 19 21 21 20 20 21 22 23 23 23 22 22 21 21 22 22 23 24 24 25 26
19 14 15 19 20 22 27 22 20 22 16 16 20 19 18 17 21 23 21 19 18 18 19 19 19 19 19 21 23 24 23 23 22 22 22 22 23 24 24 24 25 26 28 29
26 24 28 23 20 20 19 24 23 21 18 18 18 19 20 20 23 23 20 18 19 19 18 18 18 19 21 23 24 24 23 22 22 22 22 22 22 23 24 26 27 29 30 33
26 29 29 26 24 26 28 27 25 21 19 17 20 21 22 24 24 22 19 19 19 18 18 19 21 22 23 26 25 25 23 23 22 22 22 23 23 24 27 28 30 31 34 36
33 30 26 26 27 26 27 26 26 21 19 20 20 23 26 26 24 22 21 21 20 20 21 22 24 26 29 28 26 24 23 23 22 22 23 24 26 27 29 30 31 33 36 38
37 29 29 23 23 24 24 24 22 21 22 22 24 25 27 27 26 24 24 23 23 24 25 26 27 29 31 30 25 23 23 23 22 22 24 26 28 31 29 31 34 36 38 41
31 29 26 24 23 22 21 21 20 21 21 21 24 28 30 30 29 27 27 27 27 28 28 27 30 31 32 28 24 24 22 21 22 25 27 28 29 30 32 35 36 37 39 43
23 22 26 25 23 24 19 22 22 23 25 25 26 27 29 31 31 32 32 32 31 30 30 31 31 30 29 24 23 21 21 23 25 27 29 30 31 33 35 36 38 40 43 47
24 24 25 24 26 25 22 23 25 26 27 29 30 32 34 35 36 36 35 35 33 32 33 31 32 29 25 22 20 20 23 25 27 28 29 31 33 35 37 38 40 43 46 49
30 32 30 27 26 30 28 25 28 30 30 31 32 34 37 39 39 39 39 37 35 35 32 32 32 24 20 18 20 24 25 27 28 29 31 33 35 36 38 40 42 44 47 50
37 37 35 33 34 31 30 31 31 31 33 35 37 40 41 42 43 42 40 38 36 33 29 24 23 17 15 19 23 25 27 28 29 31 33 35 36 38 40 41 43 45 47 49
26 30 33 30 30 32 31 30 29 30 34 36 35 40 41 43 41 39 34 28 20 18 19 14 13 13 16 22 25 27 28 29 31 32 35 36 38 39 41 42 43 45 46 46
29 32 33 32 28 33 37 29 24 26 28 33 40 38 37 34 35 31 26 23 19 15 11 11 13 17 22 25 27 28 29 31 32 35 37 38 39 40 41 42 43 44 43 42
32 34 28 29 27 26 36 41 43 30 30 30 30 32 32 27 21 17 15 15 13 11 12 15 19 22 26 27 29 30 32 34 36 37 38 39 40 40 41 42 42 41 41 39
19 20 20 21 25 32 28 27 19 22 25 25 23 20 18 17 16 17 14 11 12 15 18 21 24 27 28 30 31 33 35 36 38 39 40 40 41 41 41 40 40 39 38 36
8 11 12 10 13 14 15 13 13 14 15 15 14 14 13 13 12 11 13 16 19 21 24 27 29 30 32 33 35 36 37 39 40 40 41 41 41 40 40 39 38 37 35 34
6 5 6 6 5 4 5 8 10 11 12 12 11 11 10 12 14 16 19 22 24 27 30 32 33 34 35 37 38 38 39 40 41 41 41 40 40 40 39 38 37 35 33 32
5 5 3 3 2 3 4 5 5 6 7 8 11 13 15 17 20 23 25 28 30 32 34 35 37 38 39 39 39 40 40 41 41 41 40 40 39 39 38 37 35 34 32 31
5 3 1 1 1 1 2 4 6 9 12 14 15 17 20 22 25 27 30 32 34 36 38 39 40 40 40 41 41 41 41 41 40 40 39 39 39 38 36 35 33 32 30 29
1 0 1 2 4 5 8 11 13 14 16 18 20 22 24 27 29 31 33 35 36 38 40 41 42 43 43 43 42 42 41 40 40 39 39 38 37 36 34 33 32 30 28 27
2 4 6 7 9 10 12 14 15 17 19 22 24 26 28 30 32 33 35 37 40 42 44 45 46 45 44 42 41 41 40 40 40 39 38 37 36 34 33 31 29 28 26 25
Wind_Direction
227 237 242 243 239 236 234 243 255 267 265 269 283 270 256 267 275 265 258 251 260 235 227 224 232 236 238 242 251 259 269 275 277 279 280 283 287 288 286 282 278 276 265 279
226 233 244 244 241 243 245 246 253 256 261 272 279 279 263 264 270 274 257 246 246 240 234 237 241 242 244 249 253 258 266 272 276 279 283 286 284 284 282 279 276 281 280 288
235 243 243 243 242 240 242 243 253 251 262 274 277 285 265 260 260 265 270 265 254 244 243 246 247 249 254 258 263 270 277 281 284 286 284 284 284 282 280 280 285 289 285 291
230 220 222 247 247 255 245 248 251 261 268 280 281 269 263 256 251 254 262 265 258 247 242 239 243 252 259 268 277 282 284 285 284 284 283 281 279 279 279 281 279 282 283 287
207 222 245 244 242 249 250 257 258 265 267 270 277 270 264 256 251 254 249 244 241 237 237 244 254 267 277 283 284 284 285 287 287 286 285 283 281 280 281 283 289 290 291 296
206 221 237 254 249 245 255 259 259 272 290 270 261 263 265 255 243 238 227 225 224 232 247 263 275 282 284 285 287 290 293 295 293 290 283 279 281 284 288 291 291 292 293 294
219 230 243 244 243 234 219 263 273 284 275 259 262 263 252 240 230 222 217 222 234 251 267 277 281 282 285 289 293 299 300 298 298 294 290 288 290 294 297 299 302 304 303 303
211 221 243 242 231 222 263 273 278 299 260 263 260 243 235 219 218 217 221 234 250 263 271 275 279 282 288 295 301 305 307 306 301 294 293 297 301 304 307 308 307 306 305 305
230 237 244 259 257 262 263 282 284 291 259 255 242 228 225 216 214 223 233 247 258 264 269 275 284 289 294 300 305 308 307 304 299 296 297 300 304 306 306 305 305 304 305 306
247 247 249 255 259 266 276 285 280 280 260 238 232 226 221 216 221 231 245 256 261 265 273 281 289 290 296 303 306 306 302 300 298 298 299 300 302 303 303 304 305 306 307 307
249 248 249 255 264 271 278 278 275 260 242 227 229 224 222 226 233 243 255 259 261 268 275 280 286 291 300 308 304 299 298 297 296 296 299 302 304 305 305 305 305 306 307 309
244 251 261 266 269 278 276 270 263 249 241 234 223 227 230 235 239 249 259 261 264 266 271 276 287 298 304 304 295 293 293 293 292 296 300 302 303 304 303 305 308 309 311 312
247 250 263 252 265 274 272 250 248 243 236 232 234 228 230 236 243 253 257 259 261 264 269 276 290 295 297 290 285 288 288 288 293 296 298 300 302 303 305 307 307 308 310 312
239 251 250 253 280 266 267 256 245 239 234 238 231 233 238 241 248 253 255 257 259 261 267 278 286 281 282 276 280 280 284 289 293 297 301 302 304 306 307 308 308 310 313 316
245 250 253 254 272 259 267 260 248 243 241 240 237 237 242 247 252 256 256 256 257 262 268 278 274 269 270 273 275 280 286 292 297 300 301 303 306 307 308 309 310 313 316 319
242 246 247 262 258 255 253 259 252 244 242 244 246 247 248 249 251 252 252 252 254 259 264 269 267 262 265 273 280 286 292 296 298 300 303 306 307 308 309 310 312 315 318 320
247 249 252 263 252 254 255 253 248 247 246 247 246 246 247 247 243 241 240 240 237 241 250 248 253 258 272 283 287 290 295 298 300 302 305 307 307 308 310 311 313 316 319 321
251 248 251 251 248 249 246 249 246 248 250 250 257 255 249 242 238 233 229 230 240 244 244 250 262 276 284 286 289 293 296 299 301 304 306 307 308 309 310 312 314 317 319 320
263 264 262 263 247 243 241 231 247 261 266 266 256 240 233 234 234 233 240 249 251 252 264 280 288 289 287 288 290 293 296 299 302 305 306 307 308 309 310 312 314 317 318 319
235 239 235 238 241 253 252 239 254 249 249 237 231 230 229 227 234 245 249 249 259 275 286 286 286 284 284 286 290 294 298 302 304 305 306 306 307 308 309 312 314 316 316 316
250 259 260 263 255 254 255 245 235 232 230 225 226 231 242 252 252 250 258 286 290 286 284 283 282 282 286 290 292 296 299 302 304 305 306 306 306 307 309 311 313 314 314 313
235 234 226 225 223 225 219 213 218 228 233 237 244 248 245 244 259 285 293 285 282 281 280 280 282 286 288 291 294 297 300 303 304 305 305 304 304 306 308 310 310 311 311 311
175 163 167 173 183 213 233 236 239 240 241 239 237 242 265 288 295 290 284 283 281 279 279 282 284 286 288 290 293 297 300 302 303 303 302 302 303 305 307 307 308 308 308 309
114 120 115 150 228 254 247 241 238 236 244 268 291 298 296 290 285 283 283 283 284 285 286 286 287 288 289 291 295 299 300 301 300 300 300 302 302 303 304 305 305 306 306 306
88 88 111 148 168 188 203 220 250 272 283 283 280 276 276 278 280 283 285 286 286 287 287 288 289 291 294 297 299 299 299 298 298 298 299 299 300 301 302 303 303 303 303 303
44 34 219 232 240 249 256 262 268 273 277 280 283 285 286 287 287 288 288 289 290 290 291 292 294 297 298 299 298 296 295 296 297 297 297 298 299 300 300 300 300 300 300 301
255 253 256 263 270 279 285 289 291 291 290 290 290 291 292 293 293 293 293 293 293 294 295 297 299 299 298 296 295 295 296 296 296 296 296 297 297 298 298 297 297 297 297 300
Height
3071 3074 3076 3077 3079 3081 3082 3083 3083 3083 3084 3086 3087 3087 3087 3086 3086 3085 3086 3087 3087 3088 3089 3089 3090 3091 3092 3092 3093 3093 3093 3091 3090 3088 3086 3084 3081 3078 3075 3073 3071 3070 3068 3066
3065 3069 3069 3070 3072 3074 3075 3076 3076 3077 3078 3080 3081 3081 3081 3081 3081 3080 3080 3081 3082 3083 3084 3085 3086 3086 3086 3087 3086 3086 3086 3084 3083 3080 3077 3075 3072 3070 3068 3066 3063 3061 3059 3058
3060 3062 3063 3063 3062 3066 3068 3069 3071 3070 3072 3074 3073 3074 3074 3074 3075 3075 3075 3076 3077 3077 3078 3079 3079 3080 3080 3080 3080 3079 3078 3076 3073 3071 3069 3066 3064 3062 3060 3057 3055 3053 3051 3048
3055 3056 3056 3056 3057 3059 3060 3062 3064 3065 3066 3066 3066 3065 3066 3067 3068 3069 3069 3070 3071 3071 3072 3073 3074 3075 3075 3075 3074 3072 3069 3067 3065 3063 3060 3058 3055 3053 3051 3048 3047 3045 3042 3039
3047 3049 3049 3048 3050 3053 3054 3056 3059 3057 3059 3058 3057 3057 3057 3058 3060 3061 3062 3063 3064 3066 3067 3068 3068 3069 3068 3067 3066 3064 3062 3060 3058 3055 3053 3050 3048 3046 3043 3041 3038 3036 3034 3031
3040 3042 3040 3044 3046 3049 3051 3045 3053 3051 3051 3048 3050 3050 3049 3049 3051 3053 3055 3057 3059 3060 3061 3061 3061 3061 3060 3059 3058 3056 3055 3052 3050 3047 3045 3042 3040 3038 3036 3033 3031 3029 3026 3023
3035 3035 3035 3038 3041 3043 3046 3041 3045 3045 3044 3042 3043 3044 3043 3044 3046 3048 3051 3053 3054 3055 3055 3055 3055 3054 3053 3052 3051 3049 3046 3044 3041 3038 3036 3034 3032 3030 3028 3025 3023 3020 3018 3015
3030 3031 3030 3031 3035 3037 3036 3036 3037 3036 3036 3037 3036 3037 3038 3039 3042 3045 3047 3049 3050 3050 3050 3049 3048 3048 3047 3045 3043 3040 3038 3035 3033 3031 3029 3027 3024 3022 3019 3017 3014 3012 3009 3007
3020 3020 3023 3024 3027 3030 3031 3031 3030 3029 3029 3029 3030 3031 3033 3035 3038 3041 3042 3043 3044 3044 3043 3043 3042 3040 3039 3037 3035 3033 3030 3028 3026 3024 3021 3019 3017 3015 3012 3010 3007 3004 3001 2997
3015 3015 3018 3020 3021 3023 3024 3024 3023 3022 3022 3023 3025 3026 3028 3031 3033 3035 3036 3037 3037 3037 3036 3035 3034 3032 3031 3029 3026 3024 3022 3020 3018 3016 3014 3012 3010 3008 3005 3002 2999 2995 2991 2988
3007 3009 3012 3014 3016 3017 3017 3016 3016 3015 3017 3018 3019 3021 3023 3026 3028 3029 3030 3030 3030 3029 3028 3027 3026 3024 3022 3020 3017 3016 3014 3013 3011 3009 3007 3005 3002 3000 2996 2993 2990 2986 2982 2977
2999 3005 3007 3010 3009 3009 3009 3009 3009 3009 3010 3012 3014 3016 3018 3020 3021 3022 3022 3022 3021 3021 3020 3019 3017 3015 3013 3012 3010 3009 3007 3006 3004 3002 2999 2997 2994 2990 2990 2985 2980 2976 2971 2966
2995 2998 3000 3001 3002 3001 3001 3001 3002 3003 3005 3007 3009 3010 3012 3013 3014 3014 3014 3013 3013 3012 3011 3010 3008 3007 3005 3004 3002 3001 2999 2998 2996 2994 2992 2989 2986 2984 2980 2975 2972 2968 2963 2957
2988 2991 2993 2994 2994 2995 2995 2996 2996 2997 2999 3000 3002 3004 3005 3005 3006 3005 3005 3004 3003 3002 3001 3000 2999 2998 2997 2995 2994 2993 2992 2990 2988 2986 2983 2980 2977 2974 2970 2966 2962 2957 2951 2945
2982 2984 2986 2987 2988 2988 2988 2990 2990 2991 2992 2993 2995 2995 2996 2997 2997 2997 2996 2995 2994 2993 2991 2991 2990 2989 2988 2987 2987 2986 2984 2982 2980 2977 2975 2971 2968 2964 2960 2956 2951 2945 2939 2932
2975 2976 2978 2978 2979 2980 2981 2982 2983 2984 2985 2986 2988 2988 2989 2989 2988 2988 2987 2985 2984 2982 2981 2980 2980 2980 2980 2980 2979 2978 2976 2974 2971 2969 2966 2963 2959 2955 2950 2945 2940 2934 2927 2920
2965 2967 2969 2971 2971 2972 2973 2974 2976 2977 2978 2978 2978 2978 2977 2977 2976 2975 2974 2972 2970 2968 2969 2969 2969 2971 2972 2973 2972 2970 2967 2965 2963 2960 2957 2953 2949 2945 2940 2934 2929 2922 2915 2907
2958 2959 2960 2961 2962 2963 2963 2965 2967 2968 2969 2969 2969 2968 2967 2965 2964 2963 2962 2962 2963 2964 2964 2964 2963 2964 2965 2966 2965 2962 2959 2956 2954 2950 2947 2943 2938 2934 2929 2923 2917 2911 2904 2897
2952 2952 2952 2953 2954 2955 2953 2955 2957 2958 2958 2959 2959 2958 2957 2958 2959 2959 2959 2959 2960 2960 2961 2960 2959 2959 2959 2958 2957 2954 2951 2947 2944 2940 2936 2932 2927 2922 2917 2911 2906 2899 2893 2887
2943 2943 2943 2945 2945 2945 2948 2946 2948 2948 2949 2951 2949 2952 2952 2952 2954 2955 2956 2956 2955 2955 2955 2955 2954 2953 2951 2949 2947 2945 2941 2938 2934 2930 2926 2920 2916 2911 2905 2900 2894 2888 2882 2876
2933 2935 2937 2936 2937 2938 2937 2936 2939 2943 2946 2947 2948 2949 2950 2950 2951 2952 2951 2950 2950 2950 2949 2948 2947 2945 2943 2941 2938 2935 2931 2927 2923 2919 2914 2909 2905 2900 2894 2889 2883 2878 2872 2867
2928 2929 2929 2931 2934 2935 2936 2936 2938 2941 2943 2944 2945 2946 2947 2947 2947 2947 2947 2947 2945 2944 2943 2941 2939 2937 2934 2931 2928 2925 2921 2916 2912 2907 2903 2898 2893 2888 2883 2878 2873 2867 2862 2857
2928 2929 2930 2931 2933 2934 2935 2936 2938 2939 2941 2942 2943 2943 2943 2943 2942 2941 2941 2940 2938 2936 2934 2932 2930 2927 2924 2920 2917 2914 2910 2905 2900 2896 2891 2887 2882 2877 2872 2867 2862 2857 2852 2848
2930 2931 2932 2933 2934 2935 2936 2937 2938 2940 2941 2941 2941 2940 2939 2938 2937 2936 2934 2933 2931 2929 2926 2923 2920 2917 2913 2909 2905 2902 2898 2893 2889 2884 2879 2875 2870 2866 2861 2856 2852 2847 2843 2839
2932 2932 2933 2934 2935 2936 2937 2937 2938 2938 2938 2937 2936 2936 2934 2933 2932 2930 2927 2925 2922 2920 2917 2913 2910 2906 2902 2897 2893 2889 2885 2881 2876 2872 2867 2863 2859 2855 2850 2845 2841 2837 2834 2831
2935 2935 2935 2935 2936 2936 2936 2936 2936 2935 2934 2933 2932 2931 2929 2926 2924 2922 2919 2916 2913 2909 2905 2902 2898 2893 2889 2884 2880 2876 2872 2868 2864 2860 2856 2852 2848 2843 2839 2835 2831 2828 2825 2822
2935 2935 2935 2935 2934 2934 2933 2933 2932 2931 2929 2928 2926 2923 2921 2918 2915 2913 2909 2906 2902 2898 2893 2889 2884 2880 2876 2871 2867 2863 2860 2856 2852 2848 2844 2840 2836 2832 2828 2825 2822 2819 2816 2814